STARLINK-4484 (53417 NORAD) Tracking and Keplerian Element Data

This shows tracking and keplerian element data for the satellite.

Feedback or suggestion? Click here.




ElementValue
Catalog53417
NameSTARLINK-4484
Epoch Orbit1673
Epoch Day324.84687241
Epoch Year2022
RAAN122.858
Inclination53.2174
Eccentricity0.0002069
Argument of Perigee49.1797
Mean Anonmoly310.9374
Mean Motion15.08845465
Decay Rate1.741E-05
L11 53417U 22097AF 22324.84687241 .00001741 00000+0 12746-3 0 9998
L22 53417 53.2174 122.8580 0002069 49.1797 310.9374 15.08845465 16734



Live tracking and technical data element details for STARLINK-4484 (NORAD 53417). STARLINK-4484 can be tracked NOW for your location showing map with azimuth and elevation plus other details from your city location.







IsCatalogInMostPopularTable: catalog: 53417, numindb: 6
Update: records affected: 1



GetName: 53417 STARLINK-4484

Hit Count: updated at: Thu, 08 Dec 2022 09:49:06 GMT